Showing default

TECHEDSAT-11, 60208

Orbit data source: Space-Track

TECHEDSAT-11, 60208 is an American payload satellite in SSO that was launched on Thu, 04 Jul 2024 UTC via an FIREFLY ALPHA launch vehicle from the Air Force Western Test Range (AFWTR). Payload-class satellites include a variety of spacecraft equipped with specific instruments for various scientific and technological missions. These include communications satellites like Starlink; space stations such as the ISS; scientific satellites like the Hubble; Earth observation satellites from companies like Planet Labs, Umbra, and HawkEye 360; GPS; miniature CubeSats for education and research; and military/defense satellites.

Loading next visibility...
Identifier
60208, 2024-125F
Orbit
SSO
Last TLE update
17 hours ago
Origin
Manufacturer
ARC
Mission
Operational spacecraft
Bus & Motor
CUBESAT 6UXL, Unknown motor
Mass
10 kg wet, ~10 kg dry
Launch date (UTC)
2024-07-04 (10 months ago)
Launch vehicle
FIREFLY ALPHA
Launch site
Air Force Western Test Range (AFWTR)
Object type
Payload
Rocket body
Debris
Shape & HBR
Unknown
Radar Cross Section
Small (<0.1 m²)

Expand to show TLE details & history

TLE from 17 hours ago
0 TECHEDSAT-11
1 60208U 24125F   25128.53301963  .00013524  00000-0  43913-3 0  9996
2 60208  97.2850 340.0554 0019940 245.5190 114.3973 15.31861960 47019
Epoch: 2025-05-08T12:47Z
Definitive object data (Epoch: 2025-05-08T12:47:32.896Z)
Latitude
0.00005°
Longitude
-78.43383°
Altitude
479.032 km
Speed
7.623 km/s
True Right ascension
22h 40m 13s
True Declination
0° 00' 00"
Sunlit
Object was in daylight at TLE epoch
Visualization TLE readout
Latitude
18.93828°
Longitude
-80.22398°
Altitude
482.633 km
Speed
7.62 km/s
Apparent Right ascension
00h 07m 36s
Apparent Declination
-10° 25' 23"
Sunlit
Object is in daylight
Visualization observer readout
Local Sidereal Time
14:16:00
Azimuth
52.855° ENE
Elevation
-49.036°
Doppler factor
1
Orbital elements
Apogee altitude
480.852 km
Perigee altitude
453.552 km
Semi-major axis
6,845.339 km
Eccentricity
0.001994
Inclination
97.285°
RAAN
340.0554°
Arg. of periapsis
245.519°
True anomaly
114.60518°
Mean anomaly
114.3973°
Eccentric anomaly
114.50126°
Mean motion
3.83222 °/min
BSTAR
0.00043913
Orbital period
93.94 mins
Loading maneuver chart data...
Loading SW <> Apogee altitude chart data...
Loading historical data...
Loading historical data...
Loading historical data...
Loading historical data...
Loading historical data...
Loading historical data...
Loading historical data...

TECHEDSAT-11 Visibility forecast

Observer location: undefined°, undefined°

Span
Click to sort rows by Start time (UTC) header in descending order
Start Az.
Max El. time (UTC)
Max El. Az.
Max El.
End time (UTC)
End Az.
6 mins2025-05-09 14:00:13.121Z159.99° S2025-05-09 14:03:13.121Z67.445° ENE43.651°2025-05-09 14:06:13.121Z353.133° N
5 mins2025-05-10 02:59:13.121Z9.059° NNE2025-05-10 03:01:13.121Z352.955° N42.849°2025-05-10 03:04:13.121Z196.168° SSW
|